VE7SML-6 Weather Reports


Display with metric or nautical units.
time (UTC)temp
F
wind
direction
speed
MPH
gust
MPH
rain 1hr
in
rain 24hr
in
rain mn
in
humidity
%
barometer
mb
20260506043733 60 157 8.0 10.0 0.00 0.00 0.00 52 1111.0
20260506043233 60 180 9.0 14.0 0.00 0.00 0.00 53 1111.0
20260506042732 60 157 9.0 11.0 0.00 0.00 0.00 53 1111.0
20260506042232 61 157 6.0 14.0 0.00 0.00 0.00 53 1111.0
20260506041732 61 157 3.0 11.0 0.00 0.00 0.00 53 1111.0
20260506041232 61 157 0.0 10.0 0.00 0.00 0.00 53 1111.0
20260506040731 62 157 9.0 13.0 0.00 0.00 0.00 53 1111.0
20260506040231 62 157 3.0 10.0 0.00 0.00 0.00 53 1111.0
20260506035731 63 157 0.0 10.0 0.00 0.00 0.00 54 1111.0
20260506035230 63 157 4.0 13.0 0.00 0.00 0.00 54 1111.0
20260506034730 64 157 6.0 13.0 0.00 0.00 0.00 54 1111.0
20260506034230 64 180 0.0 11.0 0.00 0.00 0.00 54 1111.0
20260506033730 65 180 6.0 9.0 0.00 0.00 0.00 54 1111.0
20260506033229 66 157 0.0 12.0 0.00 0.00 0.00 54 1111.0
20260506032729 67 157 7.0 9.0 0.00 0.00 0.00 54 1111.0
20260506032229 68 157 3.0 13.0 0.00 0.00 0.00 54 1111.0
20260506031728 69 157 5.0 10.0 0.00 0.00 0.00 55 1111.0
20260506031228 70 157 0.0 11.0 0.00 0.00 0.00 55 1111.0
20260506030229 71 157 0.0 10.0 0.00 0.00 0.00 56 1111.0
20260506025727 71 157 0.0 7.0 0.00 0.00 0.00 56 1111.0
20260506025227 72 157 0.0 12.0 0.00 0.00 0.00 56 1111.0
20260506024727 72 157 3.0 8.0 0.00 0.00 0.00 56 1111.0
20260506022225 74 247 0.0 11.0 0.00 0.00 0.00 56 1111.0
20260506021725 74 247 2.0 8.0 0.00 0.00 0.00 56 1111.0
20260506020224 75 247 7.0 12.0 0.00 0.00 0.00 56 1111.0
20260506015724 75 247 12.0 13.0 0.00 0.00 0.00 56 1111.0
20260506015224 76 247 2.0 12.0 0.00 0.00 0.00 56 1111.0
20260506014725 76 247 1.0 12.0 0.00 0.00 0.00 56 1111.0
20260506014223 76 247 0.0 11.0 0.00 0.00 0.00 56 1111.0
20260506013723 77 247 4.0 11.0 0.00 0.00 0.00 56 1111.0
20260506013224 77 247 9.0 12.0 0.00 0.00 0.00 56 1111.0
20260506012723 77 247 10.0 14.0 0.00 0.00 0.00 55 1111.0
20260506005221 79 157 10.0 10.0 0.00 0.00 0.00 55 1111.0
20260506000719 80 157 5.0 13.0 0.00 0.00 0.00 53 1111.0
20260506000219 80 157 4.0 13.0 0.00 0.00 0.00 53 1111.0
20260505234718 81 157 8.0 13.0 0.00 0.00 0.00 52 1111.0
20260505233717 81 247 8.0 11.0 0.00 0.00 0.00 51 1111.0
20260505231216 81 247 0.0 14.0 0.00 0.00 0.00 51 1111.0
20260505230715 81 247 7.0 11.0 0.00 0.00 0.00 51 1111.0
20260505230215 81 247 3.0 9.0 0.00 0.00 0.00 51 1111.0
20260505224714 80 247 6.0 6.0 0.00 0.00 0.00 51 1111.0
20260505223214 80 247 2.0 7.0 0.00 0.00 0.00 50 1111.0
20260505222713 80 247 2.0 6.0 0.00 0.00 0.00 50 1111.0
20260505221711 80 157 3.0 7.0 0.00 0.00 0.00 50 1111.0
20260505221211 80 157 2.0 9.0 0.00 0.00 0.00 50 1111.0
20260505220711 80 157 9.0 9.0 0.00 0.00 0.00 49 1111.0
20260505220211 80 247 0.0 8.0 0.00 0.00 0.00 49 1111.0
20260505215710 80 247 8.0 8.0 0.00 0.00 0.00 49 1111.0
20260505214710 80 247 11.0 11.0 0.00 0.00 0.00 49 1111.0
20260505213210 80 247 0.0 6.0 0.00 0.00 0.00 50 1111.0
20260505211209 80 247 1.0 7.0 0.00 0.00 0.00 50 1111.0
20260505210709 80 247 5.0 7.0 0.00 0.00 0.00 50 1111.0
20260505210207 80 247 0.0 8.0 0.00 0.00 0.00 50 1111.0
20260505205707 80 247 0.0 5.0 0.00 0.00 0.00 50 1111.0
20260505204706 79 247 0.0 4.0 0.00 0.00 0.00 51 1111.0
20260505204208 78 247 2.0 2.0 0.00 0.00 0.00 51 1111.0
20260505203206 78 247 0.0 5.0 0.00 0.00 0.00 51 1111.0
20260505202206 77 247 0.0 4.0 0.00 0.00 0.00 51 1111.0
20260505201705 77 247 0.0 0.0 0.00 0.00 0.00 51 1111.0
20260505201204 77 157 0.0 0.0 0.00 0.00 0.00 52 1111.0
20260505195203 76 247 0.0 6.0 0.00 0.00 0.00 52 1111.0
20260505194703 76 247 0.0 2.0 0.00 0.00 0.00 52 1111.0
20260505193702 76 247 4.0 4.0 0.00 0.00 0.00 52 1111.0
20260505193202 76 247 0.0 4.0 0.00 0.00 0.00 52 1111.0
20260505192702 75 247 0.0 0.0 0.00 0.00 0.00 51 1111.0
20260505192202 75 247 0.0 4.0 0.00 0.00 0.00 51 1111.0
20260505191701 75 247 0.0 0.0 0.00 0.00 0.00 51 1111.0
20260505191201 75 247 0.0 3.0 0.00 0.00 0.00 51 1111.0
20260505190701 75 247 0.0 4.0 0.00 0.00 0.00 51 1111.0
20260505190200 75 247 0.0 4.0 0.00 0.00 0.00 51 1111.0
20260505185200 74 247 0.0 0.0 0.00 0.00 0.00 51 1111.0
20260505184700 74 247 0.0 3.0 0.00 0.00 0.00 51 1111.0
20260505184159 74 247 0.0 0.0 0.00 0.00 0.00 51 1111.0
20260505183659 74 247 0.0 2.0 0.00 0.00 0.00 51 1111.0
20260505183159 74 247 0.0 2.0 0.00 0.00 0.00 51 1111.0
20260505182158 73 247 0.0 0.0 0.00 0.00 0.00 50 1111.0
20260505181658 73 247 0.0 1.0 0.00 0.00 0.00 50 1111.0
20260505180157 72 247 0.0 0.0 0.00 0.00 0.00 50 1111.0
20260505175657 72 247 0.0 0.0 0.00 0.00 0.00 50 1111.0
20260505175157 72 247 0.0 0.0 0.00 0.00 0.00 50 1111.0
20260505174156 71 157 0.0 0.0 0.00 0.00 0.00 50 1111.0
20260505173656 70 157 0.0 0.0 0.00 0.00 0.00 50 1111.0
20260505172655 70 247 0.0 0.0 0.00 0.00 0.00 50 1111.0
20260505172155 70 247 0.0 0.0 0.00 0.00 0.00 50 1111.0
20260505171655 69 247 0.0 0.0 0.00 0.00 0.00 50 1111.0
20260505171154 69 247 0.0 0.0 0.00 0.00 0.00 50 1111.0
20260505170654 68 247 0.0 0.0 0.00 0.00 0.00 50 1111.0
20260505165653 67 157 0.0 0.0 0.00 0.00 0.00 50 1111.0
20260505163652 66 157 0.0 0.0 0.00 0.00 0.00 50 1111.0
20260505162652 65 157 0.0 0.0 0.00 0.00 0.00 50 1111.0
20260505162151 64 157 0.0 0.0 0.00 0.00 0.00 50 1111.0
20260505152648 59 157 0.0 0.0 0.00 0.00 0.00 49 1111.0
20260505152148 59 157 0.0 0.0 0.00 0.00 0.00 49 1111.0
20260505151648 58 157 0.0 0.0 0.00 0.00 0.00 49 1111.0
20260505151148 57 157 0.0 0.0 0.00 0.00 0.00 49 1111.0
20260505150647 57 157 0.0 0.0 0.00 0.00 0.00 49 1111.0
20260505150147 56 157 0.0 0.0 0.00 0.00 0.00 50 1111.0
20260505140644 43 157 0.0 0.0 0.00 0.00 0.00 50 1111.0
20260505130140 177 157 0.0 0.0 0.00 0.00 0.00 10 1111.0
20260505124639 44 157 0.0 0.0 0.00 0.00 0.00 50 1111.0
20260505124139 44 157 0.0 0.0 0.00 0.00 0.00 50 1111.0
20260505123639 44 157 0.0 0.0 0.00 0.00 0.00 50 1111.0
20260505123138 45 157 0.0 0.0 0.00 0.00 0.00 50 1111.0
20260505122138 45 157 0.0 0.0 0.00 0.00 0.00 50 1111.0
20260505121638 45 157 0.0 0.0 0.00 0.00 0.00 50 1111.0
20260505121137 46 157 0.0 0.0 0.00 0.00 0.00 51 1111.0
20260505120637 46 157 0.0 0.0 0.00 0.00 0.00 51 1111.0
20260505120137 46 157 0.0 0.0 0.00 0.00 0.00 51 1111.0
20260505115637 46 157 0.0 0.0 0.00 0.00 0.00 51 1111.0
20260505115136 46 157 0.0 0.0 0.00 0.00 0.00 51 1111.0
20260505114136 46 157 0.0 0.0 0.00 0.00 0.00 51 1111.0
20260505113635 46 157 0.0 0.0 0.00 0.00 0.00 51 1111.0
20260505113135 46 157 0.0 0.0 0.00 0.00 0.00 51 1111.0
20260505112135 46 180 0.0 0.0 0.00 0.00 0.00 51 1111.0
20260505111134 46 180 0.0 0.0 0.00 0.00 0.00 51 1111.0
20260505110634 46 180 0.0 0.0 0.00 0.00 0.00 51 1111.0
20260505110133 46 180 0.0 0.0 0.00 0.00 0.00 51 1111.0
20260505102131 48 180 0.0 0.0 0.00 0.00 0.00 50 1111.0
20260505101131 49 180 0.0 0.0 0.00 0.00 0.00 51 1111.0
20260505100631 49 180 0.0 0.0 0.00 0.00 0.00 51 1111.0
20260505100130 49 180 0.0 0.0 0.00 0.00 0.00 51 1111.0
20260505095630 50 180 0.0 0.0 0.00 0.00 0.00 51 1111.0
20260505095130 50 180 0.0 0.0 0.00 0.00 0.00 51 1111.0
20260505094629 50 157 0.0 0.0 0.00 0.00 0.00 51 1111.0
20260505093629 50 157 0.0 0.0 0.00 0.00 0.00 51 1111.0
20260505093128 50 157 0.0 2.0 0.00 0.00 0.00 51 1111.0
20260505092628 51 157 0.0 0.0 0.00 0.00 0.00 51 1111.0
20260505092128 51 157 0.0 0.0 0.00 0.00 0.00 51 1111.0
20260505090627 51 157 0.0 0.0 0.00 0.00 0.00 51 1111.0
20260505090127 51 157 0.0 0.0 0.00 0.00 0.00 10 1111.0